Time,TemperatureF,DewpointF,PressureIn,WindDirection,WindDirectionDegrees,WindSpeedMPH,WindSpeedGustMPH,Humidity,HourlyPrecipIn,Conditions,Clouds,dailyrainin,SoftwareType,DateUTC
2013-01-24 00:00:00,15.5,7.8,30.32,NNE,13,8.0,23.0,71,0.00,,---,0.00,VWS V14.00,2013-01-24 06:00:00,
2013-01-24 00:03:00,15.0,9.7,30.35,NE,39,14.0,20.0,79,0.00,,---,0.00,VWS V14.00,2013-01-24 06:03:00,
2013-01-24 00:08:00,14.8,10.0,30.35,NNE,29,7.0,20.0,81,0.00,,---,0.00,VWS V14.00,2013-01-24 06:08:00,
2013-01-24 00:13:00,14.3,9.3,30.36,NNE,17,7.0,12.0,80,0.00,,---,0.00,VWS V14.00,2013-01-24 06:13:00,
2013-01-24 00:18:00,14.1,8.5,30.36,North,10,14.0,20.0,78,0.00,,---,0.00,VWS V14.00,2013-01-24 06:18:00,
2013-01-24 00:23:00,14.0,7.2,30.36,NNE,23,4.0,21.0,74,0.00,,---,0.00,VWS V14.00,2013-01-24 06:23:00,
2013-01-24 00:28:00,14.0,6.0,30.38,NNE,19,13.0,21.0,70,0.00,,---,0.00,VWS V14.00,2013-01-24 06:28:00,
2013-01-24 00:30:00,15.3,8.2,30.34,North,356,9.0,21.0,73,0.00,,---,0.00,VWS V14.00,2013-01-24 06:30:00,
2013-01-24 00:33:00,13.9,5.3,30.38,NE,40,9.0,21.0,68,0.00,,---,0.00,VWS V14.00,2013-01-24 06:33:00,
2013-01-24 00:38:00,13.7,4.8,30.38,ENE,62,7.0,21.0,67,0.00,,---,0.00,VWS V14.00,2013-01-24 06:38:00,
2013-01-24 00:43:00,13.6,4.7,30.40,NNE,20,6.0,6.0,67,0.00,,---,0.00,VWS V14.00,2013-01-24 06:43:00,
2013-01-24 00:48:00,13.4,4.8,30.40,NE,35,4.0,13.0,68,0.00,,---,0.00,VWS V14.00,2013-01-24 06:48:00,
2013-01-24 00:53:00,13.1,4.5,30.40,North,11,8.0,15.0,68,0.00,,---,0.00,VWS V14.00,2013-01-24 06:53:00,
2013-01-24 00:58:00,12.7,4.2,30.41,NNE,24,4.0,21.0,68,0.00,,---,0.00,VWS V14.00,2013-01-24 06:58:00,
2013-01-24 01:00:00,14.3,9.3,30.36,NNE,16,14.0,20.0,80,0.00,,---,0.00,VWS V14.00,2013-01-24 07:00:00,
2013-01-24 01:03:00,12.4,3.9,30.41,NNE,12,4.0,21.0,68,0.00,,---,0.00,VWS V14.00,2013-01-24 07:03:00,
2013-01-24 01:08:00,12.2,3.7,30.41,NNE,26,12.0,21.0,68,0.00,,---,0.00,VWS V14.00,2013-01-24 07:08:00,
2013-01-24 01:13:00,12.0,3.8,30.42,NNE,27,7.0,11.0,69,0.00,,---,0.00,VWS V14.00,2013-01-24 07:13:00,
2013-01-24 01:18:00,11.8,3.9,30.42,NE,51,7.0,14.0,70,0.00,,---,0.00,VWS V14.00,2013-01-24 07:18:00,
2013-01-24 01:23:00,11.6,3.7,30.42,NNE,20,3.0,14.0,70,0.00,,---,0.00,VWS V14.00,2013-01-24 07:23:00,
2013-01-24 01:28:00,11.5,3.6,30.42,NNE,26,2.0,14.0,70,0.00,,---,0.00,VWS V14.00,2013-01-24 07:28:00,
2013-01-24 01:30:00,13.6,4.7,30.40,NNE,25,4.0,21.0,67,0.00,,---,0.00,VWS V14.00,2013-01-24 07:30:00,
2013-01-24 01:33:00,11.3,3.4,30.42,NE,41,5.0,14.0,70,0.00,,---,0.00,VWS V14.00,2013-01-24 07:33:00,
2013-01-24 01:38:00,11.2,3.3,30.42,NE,49,2.0,14.0,70,0.00,,---,0.00,VWS V14.00,2013-01-24 07:38:00,
2013-01-24 01:43:00,11.0,3.2,30.43,NE,49,5.0,8.0,70,0.00,,---,0.00,VWS V14.00,2013-01-24 07:43:00,
2013-01-24 01:48:00,10.9,3.0,30.43,NNE,20,4.0,10.0,70,0.00,,---,0.00,VWS V14.00,2013-01-24 07:48:00,
2013-01-24 01:53:00,10.8,2.6,30.43,NNE,32,9.0,11.0,69,0.00,,---,0.00,VWS V14.00,2013-01-24 07:53:00,
2013-01-24 01:58:00,10.7,2.2,30.44,NNE,15,6.0,14.0,68,0.00,,---,0.00,VWS V14.00,2013-01-24 07:58:00,
2013-01-24 02:00:00,12.0,3.8,30.42,NNE,12,10.0,21.0,69,0.00,,---,0.00,VWS V14.00,2013-01-24 08:00:00,
2013-01-24 02:03:00,10.7,2.2,30.44,NE,41,6.0,14.0,68,0.00,,---,0.00,VWS V14.00,2013-01-24 08:03:00,
2013-01-24 02:08:00,10.6,2.1,30.44,NE,39,4.0,14.0,68,0.00,,---,0.00,VWS V14.00,2013-01-24 08:08:00,
2013-01-24 02:13:00,10.5,1.7,30.45,NNE,33,4.0,9.0,67,0.00,,---,0.00,VWS V14.00,2013-01-24 08:13:00,
2013-01-24 02:18:00,10.5,1.7,30.45,NE,46,4.0,10.0,67,0.00,,---,0.00,VWS V14.00,2013-01-24 08:18:00,
2013-01-24 02:23:00,10.4,1.6,30.45,NNE,18,4.0,10.0,67,0.00,,---,0.00,VWS V14.00,2013-01-24 08:23:00,
2013-01-24 02:28:00,10.3,1.5,30.46,NNE,28,3.0,12.0,67,0.00,,---,0.00,VWS V14.00,2013-01-24 08:28:00,
2013-01-24 02:30:00,11.0,3.2,30.43,NE,34,5.0,14.0,70,0.00,,---,0.00,VWS V14.00,2013-01-24 08:30:00,
2013-01-24 02:33:00,10.3,1.5,30.46,NNE,33,6.0,14.0,67,0.00,,---,0.00,VWS V14.00,2013-01-24 08:33:00,
2013-01-24 02:38:00,10.2,1.4,30.46,NNE,25,8.0,14.0,67,0.00,,---,0.00,VWS V14.00,2013-01-24 08:38:00,
2013-01-24 02:43:00,10.1,1.3,30.46,NNE,27,2.0,6.0,67,0.00,,---,0.00,VWS V14.00,2013-01-24 08:43:00,
2013-01-24 02:48:00,10.0,1.2,30.46,North,3,3.0,11.0,67,0.00,,---,0.00,VWS V14.00,2013-01-24 08:48:00,
2013-01-24 02:53:00,9.9,1.1,30.46,NNE,30,6.0,11.0,67,0.00,,---,0.00,VWS V14.00,2013-01-24 08:53:00,
2013-01-24 02:58:00,9.9,1.1,30.47,NNE,32,2.0,12.0,67,0.00,,---,0.00,VWS V14.00,2013-01-24 08:58:00,
2013-01-24 03:00:00,10.5,1.7,30.45,NNE,32,9.0,14.0,67,0.00,,---,0.00,VWS V14.00,2013-01-24 09:00:00,
2013-01-24 03:03:00,9.8,1.4,30.47,NE,36,10.0,14.0,68,0.00,,---,0.00,VWS V14.00,2013-01-24 09:03:00,
2013-01-24 03:08:00,9.6,1.2,30.47,NNE,20,5.0,14.0,68,0.00,,---,0.00,VWS V14.00,2013-01-24 09:08:00,
2013-01-24 03:13:00,9.5,1.4,30.46,North,11,7.0,7.0,69,0.00,,---,0.00,VWS V14.00,2013-01-24 09:13:00,
2013-01-24 03:18:00,9.3,1.2,30.46,North,5,1.0,9.0,69,0.00,,---,0.00,VWS V14.00,2013-01-24 09:18:00,
2013-01-24 03:23:00,9.2,1.4,30.46,NE,41,8.0,11.0,70,0.00,,---,0.00,VWS V14.00,2013-01-24 09:23:00,
2013-01-24 03:28:00,9.1,1.3,30.47,NNE,15,5.0,11.0,70,0.00,,---,0.00,VWS V14.00,2013-01-24 09:28:00,
2013-01-24 03:30:00,10.1,1.3,30.46,NNE,24,2.0,14.0,67,0.00,,---,0.00,VWS V14.00,2013-01-24 09:30:00,
2013-01-24 03:33:00,9.1,1.3,30.47,NNE,27,0.0,11.0,70,0.00,,---,0.00,VWS V14.00,2013-01-24 09:33:00,
2013-01-24 03:38:00,9.0,1.2,30.47,NNE,27,2.0,11.0,70,0.00,,---,0.00,VWS V14.00,2013-01-24 09:38:00,
2013-01-24 03:43:00,9.0,1.2,30.48,NE,38,0.0,7.0,70,0.00,,---,0.00,VWS V14.00,2013-01-24 09:43:00,
2013-01-24 03:48:00,8.9,1.1,30.48,North,11,2.0,9.0,70,0.00,,---,0.00,VWS V14.00,2013-01-24 09:48:00,
2013-01-24 03:53:00,8.9,1.1,30.48,North,10,0.0,9.0,70,0.00,,---,0.00,VWS V14.00,2013-01-24 09:53:00,
2013-01-24 03:58:00,8.8,1.0,30.49,North,1,1.0,13.0,70,0.00,,---,0.00,VWS V14.00,2013-01-24 09:58:00,
2013-01-24 04:00:00,9.5,3.5,30.46,North,11,2.0,14.0,76,0.00,,---,0.00,VWS V14.00,2013-01-24 10:00:00,
2013-01-24 04:03:00,8.7,1.2,30.49,NNE,14,8.0,13.0,71,0.00,,---,0.00,VWS V14.00,2013-01-24 10:03:00,
2013-01-24 04:08:00,8.6,1.1,30.49,NNE,13,5.0,13.0,71,0.00,,---,0.00,VWS V14.00,2013-01-24 10:08:00,
2013-01-24 04:13:00,8.4,0.9,30.50,North,4,7.0,7.0,71,0.00,,---,0.00,VWS V14.00,2013-01-24 10:13:00,
2013-01-24 04:18:00,8.3,1.1,30.50,NNE,30,7.0,13.0,72,0.00,,---,0.00,VWS V14.00,2013-01-24 10:18:00,
2013-01-24 04:23:00,8.2,1.0,30.50,NE,54,6.0,13.0,72,0.00,,---,0.00,VWS V14.00,2013-01-24 10:23:00,
2013-01-24 04:28:00,8.2,1.0,30.51,NNE,27,0.0,13.0,72,0.00,,---,0.00,VWS V14.00,2013-01-24 10:28:00,
2013-01-24 04:30:00,9.0,1.2,30.48,NE,53,7.0,12.0,70,0.00,,---,0.00,VWS V14.00,2013-01-24 10:30:00,
2013-01-24 04:33:00,8.1,1.0,30.51,North,9,2.0,13.0,72,0.00,,---,0.00,VWS V14.00,2013-01-24 10:33:00,
2013-01-24 04:38:00,8.0,0.9,30.51,North,7,1.0,13.0,72,0.00,,---,0.00,VWS V14.00,2013-01-24 10:38:00,
2013-01-24 04:43:00,7.9,1.1,30.52,NNE,18,4.0,7.0,73,0.00,,---,0.00,VWS V14.00,2013-01-24 10:43:00,
2013-01-24 04:48:00,7.8,1.0,30.52,NNE,15,1.0,8.0,73,0.00,,---,0.00,VWS V14.00,2013-01-24 10:48:00,
2013-01-24 04:53:00,7.7,0.9,30.52,North,1,5.0,9.0,73,0.00,,---,0.00,VWS V14.00,2013-01-24 10:53:00,
2013-01-24 04:58:00,7.6,0.8,30.52,NNE,17,2.0,10.0,73,0.00,,---,0.00,VWS V14.00,2013-01-24 10:58:00,
2013-01-24 05:00:00,8.5,1.0,30.50,NE,37,5.0,13.0,71,0.00,,---,0.00,VWS V14.00,2013-01-24 11:00:00,
2013-01-24 05:03:00,7.6,0.5,30.52,NE,40,0.0,10.0,72,0.00,,---,0.00,VWS V14.00,2013-01-24 11:03:00,
2013-01-24 05:08:00,7.5,0.4,30.52,North,2,2.0,10.0,72,0.00,,---,0.00,VWS V14.00,2013-01-24 11:08:00,
2013-01-24 05:13:00,7.4,0.3,30.53,North,6,1.0,2.0,72,0.00,,---,0.00,VWS V14.00,2013-01-24 11:13:00,
2013-01-24 05:18:00,7.4,0.0,30.53,NNE,24,0.0,9.0,71,0.00,,---,0.00,VWS V14.00,2013-01-24 11:18:00,
2013-01-24 05:23:00,7.3,-0.1,30.53,NNE,20,6.0,9.0,71,0.00,,---,0.00,VWS V14.00,2013-01-24 11:23:00,
2013-01-24 05:28:00,7.2,-0.2,30.53,NNE,30,2.0,9.0,71,0.00,,---,0.00,VWS V14.00,2013-01-24 11:28:00,
2013-01-24 05:30:00,7.9,1.1,30.52,NNE,18,5.0,13.0,73,0.00,,---,0.00,VWS V14.00,2013-01-24 11:30:00,
2013-01-24 05:33:00,7.2,-0.2,30.53,NNE,29,1.0,9.0,71,0.00,,---,0.00,VWS V14.00,2013-01-24 11:33:00,
2013-01-24 05:38:00,7.2,-0.2,30.53,North,6,11.0,11.0,71,0.00,,---,0.00,VWS V14.00,2013-01-24 11:38:00,
2013-01-24 05:43:00,7.2,-0.2,30.55,NNE,16,2.0,4.0,71,0.00,,---,0.00,VWS V14.00,2013-01-24 11:43:00,
2013-01-24 05:48:00,7.1,-0.3,30.55,North,1,0.0,7.0,71,0.00,,---,0.00,VWS V14.00,2013-01-24 11:48:00,
2013-01-24 05:53:00,7.1,-0.6,30.55,NNE,28,2.0,7.0,70,0.00,,---,0.00,VWS V14.00,2013-01-24 11:53:00,
2013-01-24 05:58:00,7.1,-0.6,30.56,NNE,32,2.0,8.0,70,0.00,,---,0.00,VWS V14.00,2013-01-24 11:58:00,
2013-01-24 06:00:00,7.4,0.3,30.53,North,6,1.0,10.0,72,0.00,,---,0.00,VWS V14.00,2013-01-24 12:00:00,
2013-01-24 06:03:00,7.0,-0.7,30.56,NNE,29,5.0,8.0,70,0.00,,---,0.00,VWS V14.00,2013-01-24 12:03:00,
2013-01-24 06:08:00,6.9,-0.5,30.56,NNE,27,1.0,8.0,71,0.00,,---,0.00,VWS V14.00,2013-01-24 12:08:00,
2013-01-24 06:13:00,6.9,-0.5,30.54,NNE,25,0.0,2.0,71,0.00,,---,0.00,VWS V14.00,2013-01-24 12:13:00,
2013-01-24 06:18:00,6.8,-0.6,30.54,NE,36,7.0,9.0,71,0.00,,---,0.00,VWS V14.00,2013-01-24 12:18:00,
2013-01-24 06:23:00,6.7,-0.7,30.54,NE,46,3.0,9.0,71,0.00,,---,0.00,VWS V14.00,2013-01-24 12:23:00,
2013-01-24 06:28:00,6.7,-0.7,30.55,NE,39,9.0,9.0,71,0.00,,---,0.00,VWS V14.00,2013-01-24 12:28:00,
2013-01-24 06:30:00,7.2,-0.2,30.55,NNE,15,0.0,11.0,71,0.00,,---,0.00,VWS V14.00,2013-01-24 12:30:00,
2013-01-24 06:33:00,6.7,-1.0,30.55,North,359,0.0,9.0,70,0.00,,---,0.00,VWS V14.00,2013-01-24 12:33:00,
2013-01-24 06:38:00,6.7,-1.3,30.55,NE,49,0.0,9.0,69,0.00,,---,0.00,VWS V14.00,2013-01-24 12:38:00,
2013-01-24 06:43:00,6.6,-1.4,30.56,NE,38,0.0,0.0,69,0.00,,---,0.00,VWS V14.00,2013-01-24 12:43:00,
2013-01-24 06:48:00,6.7,-1.6,30.56,NE,38,4.0,5.0,68,0.00,,---,0.00,VWS V14.00,2013-01-24 12:48:00,
2013-01-24 06:53:00,6.7,-1.6,30.56,NNE,23,4.0,8.0,68,0.00,,---,0.00,VWS V14.00,2013-01-24 12:53:00,
2013-01-24 06:58:00,6.6,-1.7,30.57,NNE,27,0.0,10.0,68,0.00,,---,0.00,VWS V14.00,2013-01-24 12:58:00,
2013-01-24 07:00:00,6.9,-0.5,30.54,NNE,25,0.0,8.0,71,0.00,,---,0.00,VWS V14.00,2013-01-24 13:00:00,
2013-01-24 07:03:00,6.6,-2.0,30.57,NNE,31,2.0,10.0,67,0.00,,---,0.00,VWS V14.00,2013-01-24 13:03:00,
2013-01-24 07:08:00,6.6,-2.0,30.57,NNE,20,5.0,10.0,67,0.00,,---,0.00,VWS V14.00,2013-01-24 13:08:00,
2013-01-24 07:13:00,6.5,-2.1,30.57,NE,41,0.0,0.0,67,0.00,,---,0.00,VWS V14.00,2013-01-24 13:13:00,
2013-01-24 07:18:00,6.5,-2.1,30.57,North,2,2.0,8.0,67,0.00,,---,0.00,VWS V14.00,2013-01-24 13:18:00,
2013-01-24 07:23:00,6.6,-2.0,30.57,NNE,33,1.0,8.0,67,0.00,,---,0.00,VWS V14.00,2013-01-24 13:23:00,
2013-01-24 07:28:00,6.6,-2.0,30.57,NNE,27,5.0,8.0,67,0.00,,---,0.00,VWS V14.00,2013-01-24 13:28:00,
2013-01-24 07:30:00,6.7,-1.3,30.56,NE,38,0.0,9.0,69,0.00,,---,0.00,VWS V14.00,2013-01-24 13:30:00,
2013-01-24 07:33:00,6.6,-2.0,30.57,NNE,28,0.0,8.0,67,0.00,,---,0.00,VWS V14.00,2013-01-24 13:33:00,
2013-01-24 07:38:00,6.6,-2.0,30.57,NE,34,1.0,8.0,67,0.00,,---,0.00,VWS V14.00,2013-01-24 13:38:00,
2013-01-24 07:43:00,6.7,-1.6,30.58,NE,36,3.0,3.0,68,0.00,,---,0.00,VWS V14.00,2013-01-24 13:43:00,
2013-01-24 07:48:00,6.7,-1.6,30.58,NE,37,1.0,7.0,68,0.00,,---,0.00,VWS V14.00,2013-01-24 13:48:00,
2013-01-24 07:53:00,6.7,-1.6,30.58,NE,37,0.0,7.0,68,0.00,,---,0.00,VWS V14.00,2013-01-24 13:53:00,
2013-01-24 07:58:00,6.7,-1.6,30.57,NE,43,0.0,7.0,68,0.00,,---,0.00,VWS V14.00,2013-01-24 13:58:00,
2013-01-24 08:00:00,6.6,-2.0,30.57,NE,41,0.0,10.0,67,0.00,,---,0.00,VWS V14.00,2013-01-24 14:00:00,
2013-01-24 08:03:00,6.8,-1.5,30.57,NE,46,0.0,7.0,68,0.00,,---,0.00,VWS V14.00,2013-01-24 14:03:00,
2013-01-24 08:08:00,6.8,-1.5,30.57,NE,55,2.0,8.0,68,0.00,,---,0.00,VWS V14.00,2013-01-24 14:08:00,
2013-01-24 08:13:00,6.9,-1.4,30.59,NE,56,3.0,3.0,68,0.00,,---,0.00,VWS V14.00,2013-01-24 14:13:00,
2013-01-24 08:18:00,7.0,-1.6,30.59,NE,34,9.0,12.0,67,0.00,,---,0.00,VWS V14.00,2013-01-24 14:18:00,
2013-01-24 08:23:00,7.1,-1.5,30.59,NE,34,0.0,12.0,67,0.00,,---,0.00,VWS V14.00,2013-01-24 14:23:00,
2013-01-24 08:28:00,7.4,-1.2,30.60,ENE,65,5.0,12.0,67,0.00,,---,0.00,VWS V14.00,2013-01-24 14:28:00,
2013-01-24 08:30:00,6.7,-1.6,30.58,NE,34,3.0,8.0,68,0.00,,---,0.00,VWS V14.00,2013-01-24 14:30:00,
2013-01-24 08:33:00,7.5,-1.5,30.60,NE,48,2.0,12.0,66,0.00,,---,0.00,VWS V14.00,2013-01-24 14:33:00,
2013-01-24 08:38:00,7.6,-1.4,30.60,ENE,60,2.0,12.0,66,0.00,,---,0.00,VWS V14.00,2013-01-24 14:38:00,
2013-01-24 08:43:00,8.1,-1.2,30.61,ENE,57,0.0,0.0,65,0.00,,---,0.00,VWS V14.00,2013-01-24 14:43:00,
2013-01-24 08:48:00,8.4,-0.9,30.61,NE,41,5.0,6.0,65,0.00,,---,0.00,VWS V14.00,2013-01-24 14:48:00,
2013-01-24 08:53:00,8.2,-1.5,30.61,NE,51,2.0,10.0,64,0.00,,---,0.00,VWS V14.00,2013-01-24 14:53:00,
2013-01-24 08:58:00,8.4,-1.3,30.62,NE,44,4.0,10.0,64,0.00,,---,0.00,VWS V14.00,2013-01-24 14:58:00,
2013-01-24 09:00:00,6.9,-1.4,30.59,NE,56,0.0,8.0,68,0.00,,---,0.00,VWS V14.00,2013-01-24 15:00:00,
2013-01-24 09:03:00,9.1,-0.6,30.62,NE,47,0.0,10.0,64,0.00,,---,0.00,VWS V14.00,2013-01-24 15:03:00,
2013-01-24 09:08:00,9.1,-0.9,30.62,NE,49,0.0,10.0,63,0.00,,---,0.00,VWS V14.00,2013-01-24 15:08:00,
2013-01-24 09:13:00,9.1,-0.6,30.62,NE,51,4.0,5.0,64,0.00,,---,0.00,VWS V14.00,2013-01-24 15:13:00,
2013-01-24 09:18:00,9.2,-0.5,30.62,NE,37,0.0,10.0,64,0.00,,---,0.00,VWS V14.00,2013-01-24 15:18:00,
2013-01-24 09:23:00,9.5,-0.5,30.62,East,85,2.0,10.0,63,0.00,,---,0.00,VWS V14.00,2013-01-24 15:23:00,
2013-01-24 09:28:00,9.7,0.0,30.62,ENE,72,3.0,10.0,64,0.00,,---,0.00,VWS V14.00,2013-01-24 15:28:00,
2013-01-24 09:30:00,8.1,-1.2,30.61,ENE,57,0.0,12.0,65,0.00,,---,0.00,VWS V14.00,2013-01-24 15:30:00,
2013-01-24 09:33:00,9.8,0.1,30.62,East,100,1.0,10.0,64,0.00,,---,0.00,VWS V14.00,2013-01-24 15:33:00,
2013-01-24 09:38:00,10.3,0.6,30.62,ENE,71,2.0,10.0,64,0.00,,---,0.00,VWS V14.00,2013-01-24 15:38:00,
2013-01-24 09:43:00,10.4,0.6,30.62,NE,53,5.0,5.0,64,0.00,,---,0.00,VWS V14.00,2013-01-24 15:43:00,
2013-01-24 09:48:00,10.5,0.4,30.62,NE,55,0.0,5.0,63,0.00,,---,0.00,VWS V14.00,2013-01-24 15:48:00,
2013-01-24 09:53:00,10.3,0.2,30.62,East,80,1.0,6.0,63,0.00,,---,0.00,VWS V14.00,2013-01-24 15:53:00,
2013-01-24 09:58:00,10.8,1.0,30.62,ENE,76,0.0,6.0,64,0.00,,---,0.00,VWS V14.00,2013-01-24 15:58:00,
2013-01-24 10:00:00,9.1,-0.9,30.62,NE,42,4.0,10.0,63,0.00,,---,0.00,VWS V14.00,2013-01-24 16:00:00,
2013-01-24 10:03:00,11.0,0.9,30.62,ENE,65,4.0,6.0,63,0.00,,---,0.00,VWS V14.00,2013-01-24 16:03:00,
2013-01-24 10:08:00,10.8,0.7,30.62,ENE,59,6.0,8.0,63,0.00,,---,0.00,VWS V14.00,2013-01-24 16:08:00,
2013-01-24 10:13:00,10.8,0.7,30.62,NE,56,0.0,0.0,63,0.00,,---,0.00,VWS V14.00,2013-01-24 16:13:00,
2013-01-24 10:18:00,11.6,1.5,30.62,NE,56,2.0,4.0,63,0.00,,---,0.00,VWS V14.00,2013-01-24 16:18:00,
2013-01-24 10:23:00,11.9,1.7,30.62,East,89,0.0,5.0,63,0.00,,---,0.00,VWS V14.00,2013-01-24 16:23:00,
2013-01-24 10:28:00,11.6,1.5,30.60,East,96,0.0,8.0,63,0.00,,---,0.00,VWS V14.00,2013-01-24 16:28:00,
2013-01-24 10:30:00,10.3,0.6,30.62,ENE,57,0.0,10.0,64,0.00,,---,0.00,VWS V14.00,2013-01-24 16:30:00,
2013-01-24 10:33:00,11.8,1.3,30.60,ESE,103,1.0,8.0,62,0.00,,---,0.00,VWS V14.00,2013-01-24 16:33:00,
2013-01-24 10:38:00,12.3,1.8,30.60,East,94,2.0,8.0,62,0.00,,---,0.00,VWS V14.00,2013-01-24 16:38:00,
2013-01-24 10:43:00,12.9,2.0,30.60,ENE,59,2.0,2.0,61,0.00,,---,0.00,VWS V14.00,2013-01-24 16:43:00,
2013-01-24 10:48:00,13.2,2.6,30.60,NE,50,4.0,8.0,62,0.00,,---,0.00,VWS V14.00,2013-01-24 16:48:00,
2013-01-24 10:53:00,13.2,2.6,30.60,East,81,1.0,8.0,62,0.00,,---,0.00,VWS V14.00,2013-01-24 16:53:00,
2013-01-24 10:58:00,13.4,2.5,30.60,ENE,74,6.0,8.0,61,0.00,,---,0.00,VWS V14.00,2013-01-24 16:58:00,
2013-01-24 11:00:00,10.8,0.7,30.62,NE,56,0.0,8.0,63,0.00,,---,0.00,VWS V14.00,2013-01-24 17:00:00,
2013-01-24 11:03:00,13.8,2.5,30.60,ENE,65,3.0,8.0,60,0.00,,---,0.00,VWS V14.00,2013-01-24 17:03:00,
2013-01-24 11:08:00,14.1,2.8,30.60,SE,127,0.0,8.0,60,0.00,,---,0.00,VWS V14.00,2013-01-24 17:08:00,
2013-01-24 11:13:00,14.3,2.6,30.60,ENE,57,2.0,2.0,59,0.00,,---,0.00,VWS V14.00,2013-01-24 17:13:00,
2013-01-24 11:18:00,14.6,3.2,30.60,ENE,65,4.0,6.0,60,0.00,,---,0.00,VWS V14.00,2013-01-24 17:18:00,
2013-01-24 11:23:00,14.9,3.2,30.60,ENE,59,5.0,7.0,59,0.00,,---,0.00,VWS V14.00,2013-01-24 17:23:00,
2013-01-24 11:28:00,15.2,3.1,30.58,ENE,76,5.0,7.0,58,0.00,,---,0.00,VWS V14.00,2013-01-24 17:28:00,
2013-01-24 11:30:00,13.0,2.4,30.60,NE,56,1.0,8.0,62,0.00,,---,0.00,VWS V14.00,2013-01-24 17:30:00,
2013-01-24 11:33:00,15.6,3.8,30.58,ESE,102,2.0,7.0,59,0.00,,---,0.00,VWS V14.00,2013-01-24 17:33:00,
2013-01-24 11:38:00,15.5,3.4,30.58,NE,52,7.0,8.0,58,0.00,,---,0.00,VWS V14.00,2013-01-24 17:38:00,
2013-01-24 11:43:00,16.2,4.0,30.58,SE,136,0.0,0.0,58,0.00,,---,0.00,VWS V14.00,2013-01-24 17:43:00,
2013-01-24 11:48:00,16.3,4.1,30.58,NE,51,4.0,6.0,58,0.00,,---,0.00,VWS V14.00,2013-01-24 17:48:00,
2013-01-24 11:53:00,16.2,3.3,30.58,East,96,4.0,7.0,56,0.00,,---,0.00,VWS V14.00,2013-01-24 17:53:00,
2013-01-24 11:58:00,16.3,3.4,30.57,East,97,2.0,7.0,56,0.00,,---,0.00,VWS V14.00,2013-01-24 17:58:00,
2013-01-24 12:00:00,14.3,2.6,30.60,NE,56,0.0,8.0,59,0.00,,---,0.00,VWS V14.00,2013-01-24 18:00:00,
2013-01-24 12:03:00,16.4,3.1,30.57,ENE,64,0.0,7.0,55,0.00,,---,0.00,VWS V14.00,2013-01-24 18:03:00,
2013-01-24 12:08:00,16.8,4.2,30.57,East,90,0.0,7.0,57,0.00,,---,0.00,VWS V14.00,2013-01-24 18:08:00,
2013-01-24 12:13:00,17.1,3.7,30.57,East,88,0.0,7.0,55,0.00,,---,0.00,VWS V14.00,2013-01-24 18:13:00,
2013-01-24 12:18:00,16.7,3.0,30.57,ESE,113,0.0,5.0,54,0.00,,---,0.00,VWS V14.00,2013-01-24 18:18:00,
2013-01-24 12:23:00,16.6,2.9,30.57,SSE,151,0.0,5.0,54,0.00,,---,0.00,VWS V14.00,2013-01-24 18:23:00,
2013-01-24 12:28:00,17.3,4.3,30.55,East,94,2.0,6.0,56,0.00,,---,0.00,VWS V14.00,2013-01-24 18:28:00,
2013-01-24 12:30:00,16.2,4.0,30.58,SE,136,0.0,8.0,58,0.00,,---,0.00,VWS V14.00,2013-01-24 18:30:00,
2013-01-24 12:33:00,17.3,3.5,30.55,South,179,0.0,7.0,54,0.00,,---,0.00,VWS V14.00,2013-01-24 18:33:00,
2013-01-24 12:38:00,17.2,3.4,30.55,ESE,122,0.0,7.0,54,0.00,,---,0.00,VWS V14.00,2013-01-24 18:38:00,
2013-01-24 12:43:00,17.5,4.1,30.56,East,87,0.0,0.0,55,0.00,,---,0.00,VWS V14.00,2013-01-24 18:43:00,
2013-01-24 12:48:00,18.5,4.6,30.56,SSE,148,1.0,5.0,54,0.00,,---,0.00,VWS V14.00,2013-01-24 18:48:00,
2013-01-24 12:53:00,18.3,4.1,30.56,East,84,0.0,7.0,53,0.00,,---,0.00,VWS V14.00,2013-01-24 18:53:00,
2013-01-24 12:58:00,18.5,4.2,30.55,ESE,123,5.0,9.0,53,0.00,,---,0.00,VWS V14.00,2013-01-24 18:58:00,
2013-01-24 13:00:00,17.1,3.7,30.57,East,88,0.0,7.0,55,0.00,,---,0.00,VWS V14.00,2013-01-24 19:00:00,
2013-01-24 13:03:00,19.4,5.1,30.55,East,82,0.0,9.0,53,0.00,,---,0.00,VWS V14.00,2013-01-24 19:03:00,
2013-01-24 13:08:00,19.9,5.1,30.55,SE,136,0.0,9.0,52,0.00,,---,0.00,VWS V14.00,2013-01-24 19:08:00,
2013-01-24 13:13:00,19.7,4.9,30.55,East,101,0.0,2.0,52,0.00,,---,0.00,VWS V14.00,2013-01-24 19:13:00,
2013-01-24 13:18:00,19.5,4.3,30.55,South,179,5.0,6.0,51,0.00,,---,0.00,VWS V14.00,2013-01-24 19:18:00,
2013-01-24 13:23:00,19.8,4.6,30.55,SSE,152,0.0,6.0,51,0.00,,---,0.00,VWS V14.00,2013-01-24 19:23:00,
2013-01-24 13:28:00,20.0,4.8,30.54,East,87,5.0,8.0,51,0.00,,---,0.00,VWS V14.00,2013-01-24 19:28:00,
2013-01-24 13:30:00,17.5,4.1,30.56,East,87,0.0,7.0,55,0.00,,---,0.00,VWS V14.00,2013-01-24 19:30:00,
2013-01-24 13:33:00,20.1,4.9,30.54,ESE,104,0.0,8.0,51,0.00,,---,0.00,VWS V14.00,2013-01-24 19:33:00,
2013-01-24 13:38:00,19.9,4.7,30.54,East,95,1.0,8.0,51,0.00,,---,0.00,VWS V14.00,2013-01-24 19:38:00,
2013-01-24 13:43:00,20.2,5.0,30.53,ESE,102,3.0,5.0,51,0.00,,---,0.00,VWS V14.00,2013-01-24 19:43:00,
2013-01-24 13:48:00,19.9,4.7,30.53,SSE,162,0.0,6.0,51,0.00,,---,0.00,VWS V14.00,2013-01-24 19:48:00,
2013-01-24 13:53:00,20.4,5.2,30.53,ESE,110,0.0,6.0,51,0.00,,---,0.00,VWS V14.00,2013-01-24 19:53:00,
2013-01-24 13:58:00,20.4,4.7,30.51,ENE,69,0.0,7.0,50,0.00,,---,0.00,VWS V14.00,2013-01-24 19:58:00,
2013-01-24 14:00:00,19.7,5.3,30.55,East,101,2.0,9.0,53,0.00,,---,0.00,VWS V14.00,2013-01-24 20:00:00,
2013-01-24 14:03:00,20.7,5.0,30.51,East,82,1.0,7.0,50,0.00,,---,0.00,VWS V14.00,2013-01-24 20:03:00,
2013-01-24 14:08:00,21.4,6.1,30.51,East,100,0.0,7.0,51,0.00,,---,0.00,VWS V14.00,2013-01-24 20:08:00,
2013-01-24 14:13:00,21.2,5.5,30.50,East,88,0.0,7.0,50,0.00,,---,0.00,VWS V14.00,2013-01-24 20:13:00,
2013-01-24 14:18:00,21.2,5.9,30.50,East,98,3.0,6.0,51,0.00,,---,0.00,VWS V14.00,2013-01-24 20:18:00,
2013-01-24 14:23:00,21.1,5.8,30.50,South,185,2.0,9.0,51,0.00,,---,0.00,VWS V14.00,2013-01-24 20:23:00,
2013-01-24 14:27:00,21.1,5.8,30.51,East,89,1.0,9.0,51,0.00,,---,0.00,VWS V14.00,2013-01-24 20:27:00,
2013-01-24 14:30:00,20.1,4.9,30.53,East,101,5.0,8.0,51,0.00,,---,0.00,VWS V14.00,2013-01-24 20:30:00,
2013-01-24 14:32:00,21.0,5.7,30.51,SE,141,0.0,9.0,51,0.00,,---,0.00,VWS V14.00,2013-01-24 20:32:00,
2013-01-24 14:37:00,21.0,6.2,30.51,SE,141,1.0,9.0,52,0.00,,---,0.00,VWS V14.00,2013-01-24 20:37:00,
2013-01-24 14:42:00,21.1,6.2,30.50,SE,124,0.0,10.0,52,0.00,,---,0.00,VWS V14.00,2013-01-24 20:42:00,
2013-01-24 14:47:00,21.3,6.8,30.50,ESE,105,1.0,7.0,53,0.00,,---,0.00,VWS V14.00,2013-01-24 20:47:00,
2013-01-24 14:52:00,21.4,6.9,30.50,ESE,106,0.0,7.0,53,0.00,,---,0.00,VWS V14.00,2013-01-24 20:52:00,
2013-01-24 14:57:00,21.5,7.0,30.50,ESE,110,0.0,7.0,53,0.00,,---,0.00,VWS V14.00,2013-01-24 20:57:00,
2013-01-24 15:00:00,21.2,5.5,30.50,East,88,0.0,7.0,50,0.00,,---,0.00,VWS V14.00,2013-01-24 21:00:00,
2013-01-24 15:02:00,21.3,6.8,30.50,South,187,1.0,7.0,53,0.00,,---,0.00,VWS V14.00,2013-01-24 21:02:00,
2013-01-24 15:07:00,21.3,6.8,30.50,ESE,106,0.0,7.0,53,0.00,,---,0.00,VWS V14.00,2013-01-24 21:07:00,
2013-01-24 15:12:00,21.4,7.3,30.49,East,93,0.0,7.0,54,0.00,,---,0.00,VWS V14.00,2013-01-24 21:12:00,
2013-01-24 15:17:00,21.3,7.3,30.49,ESE,105,0.0,6.0,54,0.00,,---,0.00,VWS V14.00,2013-01-24 21:17:00,
2013-01-24 15:22:00,21.5,7.4,30.49,South,184,1.0,6.0,54,0.00,,---,0.00,VWS V14.00,2013-01-24 21:22:00,
2013-01-24 15:27:00,21.5,7.4,30.49,SSE,158,0.0,7.0,54,0.00,,---,0.00,VWS V14.00,2013-01-24 21:27:00,
2013-01-24 15:30:00,21.1,6.2,30.50,SE,124,0.0,10.0,52,0.00,,---,0.00,VWS V14.00,2013-01-24 21:30:00,
2013-01-24 15:32:00,21.6,7.5,30.49,SE,126,0.0,7.0,54,0.00,,---,0.00,VWS V14.00,2013-01-24 21:32:00,
2013-01-24 15:37:00,21.6,7.9,30.49,East,101,0.0,7.0,55,0.00,,---,0.00,VWS V14.00,2013-01-24 21:37:00,
2013-01-24 15:42:00,21.6,7.9,30.47,ESE,110,0.0,7.0,55,0.00,,---,0.00,VWS V14.00,2013-01-24 21:42:00,
2013-01-24 15:47:00,21.6,7.9,30.47,SE,124,2.0,6.0,55,0.00,,---,0.00,VWS V14.00,2013-01-24 21:47:00,
2013-01-24 15:52:00,21.5,7.8,30.47,ESE,108,5.0,7.0,55,0.00,,---,0.00,VWS V14.00,2013-01-24 21:52:00,
2013-01-24 15:57:00,21.5,7.8,30.46,SE,143,0.0,7.0,55,0.00,,---,0.00,VWS V14.00,2013-01-24 21:57:00,
2013-01-24 16:00:00,21.4,7.3,30.49,East,92,0.0,7.0,54,0.00,,---,0.00,VWS V14.00,2013-01-24 22:00:00,
2013-01-24 16:02:00,21.5,7.8,30.46,East,86,0.0,7.0,55,0.00,,---,0.00,VWS V14.00,2013-01-24 22:02:00,
2013-01-24 16:07:00,21.5,7.8,30.46,ESE,108,0.0,7.0,55,0.00,,---,0.00,VWS V14.00,2013-01-24 22:07:00,
2013-01-24 16:12:00,21.5,7.8,30.46,SE,134,0.0,7.0,55,0.00,,---,0.00,VWS V14.00,2013-01-24 22:12:00,
2013-01-24 16:17:00,21.5,7.8,30.46,ESE,121,0.0,5.0,55,0.00,,---,0.00,VWS V14.00,2013-01-24 22:17:00,
2013-01-24 16:22:00,21.5,7.8,30.46,ESE,120,0.0,5.0,55,0.00,,---,0.00,VWS V14.00,2013-01-24 22:22:00,
2013-01-24 16:27:00,21.6,7.9,30.46,SE,146,0.0,6.0,55,0.00,,---,0.00,VWS V14.00,2013-01-24 22:27:00,
2013-01-24 16:30:00,21.6,7.9,30.47,ESE,110,0.0,7.0,55,0.00,,---,0.00,VWS V14.00,2013-01-24 22:30:00,
2013-01-24 16:32:00,21.6,8.3,30.46,SE,144,2.0,6.0,56,0.00,,---,0.00,VWS V14.00,2013-01-24 22:32:00,
2013-01-24 16:37:00,21.6,8.3,30.46,ESE,112,4.0,6.0,56,0.00,,---,0.00,VWS V14.00,2013-01-24 22:37:00,
2013-01-24 16:42:00,21.6,8.3,30.46,SE,131,0.0,7.0,56,0.00,,---,0.00,VWS V14.00,2013-01-24 22:42:00,
2013-01-24 16:47:00,21.6,8.3,30.46,ESE,115,0.0,5.0,56,0.00,,---,0.00,VWS V14.00,2013-01-24 22:47:00,
2013-01-24 16:52:00,21.6,8.3,30.46,SSE,155,6.0,7.0,56,0.00,,---,0.00,VWS V14.00,2013-01-24 22:52:00,
2013-01-24 16:57:00,21.5,8.2,30.44,ESE,115,0.0,7.0,56,0.00,,---,0.00,VWS V14.00,2013-01-24 22:57:00,
2013-01-24 17:00:00,21.5,7.8,30.46,ESE,123,2.0,7.0,55,0.00,,---,0.00,VWS V14.00,2013-01-24 23:00:00,
2013-01-24 17:02:00,21.5,8.6,30.44,ESE,102,0.0,7.0,57,0.00,,---,0.00,VWS V14.00,2013-01-24 23:02:00,
2013-01-24 17:07:00,21.5,8.6,30.44,ESE,117,0.0,7.0,57,0.00,,---,0.00,VWS V14.00,2013-01-24 23:07:00,
2013-01-24 17:12:00,21.4,8.6,30.43,East,99,0.0,7.0,57,0.00,,---,0.00,VWS V14.00,2013-01-24 23:12:00,
2013-01-24 17:17:00,21.4,8.6,30.43,East,99,0.0,0.0,57,0.00,,---,0.00,VWS V14.00,2013-01-24 23:17:00,
2013-01-24 17:22:00,21.4,8.9,30.43,ESE,103,0.0,0.0,58,0.00,,---,0.00,VWS V14.00,2013-01-24 23:22:00,
2013-01-24 17:27:00,21.4,8.9,30.43,SSE,159,0.0,6.0,58,0.00,,---,0.00,VWS V14.00,2013-01-24 23:27:00,
2013-01-24 17:30:00,21.6,8.3,30.46,ESE,121,4.0,7.0,56,0.00,,---,0.00,VWS V14.00,2013-01-24 23:30:00,
2013-01-24 17:32:00,21.4,8.9,30.43,ESE,110,0.0,8.0,58,0.00,,---,0.00,VWS V14.00,2013-01-24 23:32:00,
2013-01-24 17:37:00,21.4,8.9,30.43,SE,132,0.0,8.0,58,0.00,,---,0.00,VWS V14.00,2013-01-24 23:37:00,
2013-01-24 17:42:00,21.5,9.0,30.43,SSE,162,0.0,8.0,58,0.00,,---,0.00,VWS V14.00,2013-01-24 23:42:00,
2013-01-24 17:47:00,21.6,9.1,30.43,SE,138,6.0,6.0,58,0.00,,---,0.00,VWS V14.00,2013-01-24 23:47:00,
2013-01-24 17:52:00,21.7,9.2,30.43,SSE,166,0.0,6.0,58,0.00,,---,0.00,VWS V14.00,2013-01-24 23:52:00,
2013-01-24 17:57:00,21.8,9.7,30.43,SE,138,0.0,6.0,59,0.00,,---,0.00,VWS V14.00,2013-01-24 23:57:00,
2013-01-24 18:00:00,21.4,8.6,30.43,East,99,0.0,7.0,57,0.00,,---,0.00,VWS V14.00,2013-01-25 00:00:00,
2013-01-24 18:02:00,21.8,9.3,30.43,South,184,0.0,10.0,58,0.00,,---,0.00,VWS V14.00,2013-01-25 00:02:00,
2013-01-24 18:07:00,21.9,9.4,30.43,South,190,0.0,10.0,58,0.00,,---,0.00,VWS V14.00,2013-01-25 00:07:00,
2013-01-24 18:12:00,21.9,9.4,30.42,SE,146,0.0,10.0,58,0.00,,---,0.00,VWS V14.00,2013-01-25 00:12:00,
2013-01-24 18:17:00,21.9,9.4,30.42,South,169,5.0,12.0,58,0.00,,---,0.00,VWS V14.00,2013-01-25 00:17:00,
2013-01-24 18:22:00,21.9,9.0,30.42,SSW,194,6.0,12.0,57,0.00,,---,0.00,VWS V14.00,2013-01-25 00:22:00,
2013-01-24 18:27:00,21.9,9.0,30.42,SSE,148,0.0,12.0,57,0.00,,---,0.00,VWS V14.00,2013-01-25 00:27:00,
2013-01-24 18:30:00,21.5,9.0,30.43,SSE,162,0.0,8.0,58,0.00,,---,0.00,VWS V14.00,2013-01-25 00:30:00,
2013-01-24 18:32:00,21.9,9.0,30.42,SSE,147,0.0,12.0,57,0.00,,---,0.00,VWS V14.00,2013-01-25 00:32:00,
2013-01-24 18:37:00,21.9,9.0,30.42,SSE,167,1.0,12.0,57,0.00,,---,0.00,VWS V14.00,2013-01-25 00:37:00,
2013-01-24 18:42:00,21.8,8.9,30.41,SE,146,0.0,12.0,57,0.00,,---,0.00,VWS V14.00,2013-01-25 00:42:00,
2013-01-24 18:47:00,21.8,8.9,30.41,SE,140,0.0,9.0,57,0.00,,---,0.00,VWS V14.00,2013-01-25 00:47:00,
2013-01-24 18:52:00,21.8,8.9,30.41,SE,131,0.0,9.0,57,0.00,,---,0.00,VWS V14.00,2013-01-25 00:52:00,
2013-01-24 18:57:00,21.8,9.3,30.40,SE,137,0.0,9.0,58,0.00,,---,0.00,VWS V14.00,2013-01-25 00:57:00,
2013-01-24 19:00:00,21.9,9.4,30.42,SSE,150,2.0,10.0,58,0.00,,---,0.00,VWS V14.00,2013-01-25 01:00:00,
2013-01-24 19:02:00,21.7,9.2,30.40,SE,134,0.0,9.0,58,0.00,,---,0.00,VWS V14.00,2013-01-25 01:02:00,
2013-01-24 19:07:00,21.7,9.2,30.40,SE,132,1.0,9.0,58,0.00,,---,0.00,VWS V14.00,2013-01-25 01:07:00,
2013-01-24 19:12:00,21.7,9.2,30.40,SE,124,5.0,9.0,58,0.00,,---,0.00,VWS V14.00,2013-01-25 01:12:00,
2013-01-24 19:17:00,21.7,9.2,30.40,SE,146,6.0,8.0,58,0.00,,---,0.00,VWS V14.00,2013-01-25 01:17:00,
2013-01-24 19:22:00,21.7,9.2,30.40,SSE,156,0.0,8.0,58,0.00,,---,0.00,VWS V14.00,2013-01-25 01:22:00,
2013-01-24 19:27:00,21.7,9.2,30.40,SE,136,0.0,8.0,58,0.00,,---,0.00,VWS V14.00,2013-01-25 01:27:00,
2013-01-24 19:30:00,21.8,8.9,30.41,SE,146,0.0,12.0,57,0.00,,---,0.00,VWS V14.00,2013-01-25 01:30:00,
2013-01-24 19:32:00,21.7,9.2,30.40,ESE,113,0.0,8.0,58,0.00,,---,0.00,VWS V14.00,2013-01-25 01:32:00,
2013-01-24 19:37:00,21.7,9.2,30.40,ESE,118,0.0,8.0,58,0.00,,---,0.00,VWS V14.00,2013-01-25 01:37:00,
2013-01-24 19:42:00,21.7,9.2,30.39,SE,126,0.0,8.0,58,0.00,,---,0.00,VWS V14.00,2013-01-25 01:42:00,
2013-01-24 19:47:00,21.6,9.1,30.39,SSE,150,1.0,6.0,58,0.00,,---,0.00,VWS V14.00,2013-01-25 01:47:00,
2013-01-24 19:52:00,21.6,9.5,30.39,ESE,109,0.0,6.0,59,0.00,,---,0.00,VWS V14.00,2013-01-25 01:52:00,
2013-01-24 19:57:00,21.6,9.5,30.38,SSE,165,2.0,7.0,59,0.00,,---,0.00,VWS V14.00,2013-01-25 01:57:00,
2013-01-24 20:00:00,21.7,9.2,30.40,East,100,1.0,9.0,58,0.00,,---,0.00,VWS V14.00,2013-01-25 02:00:00,
2013-01-24 20:02:00,21.5,9.4,30.38,SSE,162,0.0,7.0,59,0.00,,---,0.00,VWS V14.00,2013-01-25 02:02:00,
2013-01-24 20:07:00,21.5,9.4,30.38,SSE,162,0.0,7.0,59,0.00,,---,0.00,VWS V14.00,2013-01-25 02:07:00,
2013-01-24 20:12:00,21.5,9.8,30.38,SSE,161,0.0,7.0,60,0.00,,---,0.00,VWS V14.00,2013-01-25 02:12:00,
2013-01-24 20:17:00,21.4,9.7,30.38,SSE,161,0.0,0.0,60,0.00,,---,0.00,VWS V14.00,2013-01-25 02:17:00,
2013-01-24 20:22:00,21.4,9.7,30.38,SSE,160,5.0,7.0,60,0.00,,---,0.00,VWS V14.00,2013-01-25 02:22:00,
2013-01-24 20:27:00,21.3,9.6,30.36,SSE,157,0.0,7.0,60,0.00,,---,0.00,VWS V14.00,2013-01-25 02:27:00,
2013-01-24 20:30:00,21.7,9.2,30.39,SE,126,0.0,8.0,58,0.00,,---,0.00,VWS V14.00,2013-01-25 02:30:00,
2013-01-24 20:32:00,21.2,9.5,30.36,SSE,147,0.0,7.0,60,0.00,,---,0.00,VWS V14.00,2013-01-25 02:32:00,
2013-01-24 20:37:00,21.2,9.9,30.36,SSE,167,9.0,10.0,61,0.00,,---,0.00,VWS V14.00,2013-01-25 02:37:00,
2013-01-24 20:42:00,21.2,9.9,30.35,SSE,159,0.0,10.0,61,0.00,,---,0.00,VWS V14.00,2013-01-25 02:42:00,
2013-01-24 20:47:00,21.3,10.0,30.35,SSE,162,0.0,5.0,61,0.00,,---,0.00,VWS V14.00,2013-01-25 02:47:00,
2013-01-24 20:52:00,21.3,10.0,30.35,ESE,111,1.0,7.0,61,0.00,,---,0.00,VWS V14.00,2013-01-25 02:52:00,
2013-01-24 20:57:00,21.4,10.1,30.35,SE,137,0.0,7.0,61,0.00,,---,0.00,VWS V14.00,2013-01-25 02:57:00,
2013-01-24 21:00:00,21.5,9.8,30.38,SSE,161,0.0,7.0,60,0.00,,---,0.00,VWS V14.00,2013-01-25 03:00:00,
2013-01-24 21:02:00,21.4,9.7,30.35,South,174,7.0,7.0,60,0.00,,---,0.00,VWS V14.00,2013-01-25 03:02:00,
2013-01-24 21:07:00,21.5,9.8,30.35,East,87,0.0,9.0,60,0.00,,---,0.00,VWS V14.00,2013-01-25 03:07:00,
2013-01-24 21:12:00,21.5,9.4,30.34,ESE,112,4.0,9.0,59,0.00,,---,0.00,VWS V14.00,2013-01-25 03:12:00,
2013-01-24 21:17:00,21.5,9.0,30.34,SE,136,4.0,7.0,58,0.00,,---,0.00,VWS V14.00,2013-01-25 03:17:00,
2013-01-24 21:22:00,21.5,9.0,30.34,SSE,156,0.0,11.0,58,0.00,,---,0.00,VWS V14.00,2013-01-25 03:22:00,
2013-01-24 21:27:00,21.5,9.0,30.34,SE,143,0.0,11.0,58,0.00,,---,0.00,VWS V14.00,2013-01-25 03:27:00,
2013-01-24 21:30:00,21.2,9.9,30.35,SSE,159,0.0,10.0,61,0.00,,---,0.00,VWS V14.00,2013-01-25 03:30:00,
2013-01-24 21:32:00,21.5,9.0,30.34,SSE,156,4.0,11.0,58,0.00,,---,0.00,VWS V14.00,2013-01-25 03:32:00,
2013-01-24 21:37:00,21.5,9.0,30.34,SE,146,0.0,11.0,58,0.00,,---,0.00,VWS V14.00,2013-01-25 03:37:00,
2013-01-24 21:42:00,21.6,9.1,30.35,ENE,76,0.0,11.0,58,0.00,,---,0.00,VWS V14.00,2013-01-25 03:42:00,
2013-01-24 21:47:00,21.6,9.1,30.35,SE,133,2.0,6.0,58,0.00,,---,0.00,VWS V14.00,2013-01-25 03:47:00,
2013-01-24 21:52:00,21.6,9.1,30.35,East,90,0.0,8.0,58,0.00,,---,0.00,VWS V14.00,2013-01-25 03:52:00,
2013-01-24 21:57:00,21.6,9.1,30.34,SSE,160,6.0,8.0,58,0.00,,---,0.00,VWS V14.00,2013-01-25 03:57:00,
2013-01-24 22:00:00,21.5,9.4,30.34,ESE,110,0.0,9.0,59,0.00,,---,0.00,VWS V14.00,2013-01-25 04:00:00,
2013-01-24 22:02:00,21.5,9.0,30.34,South,185,0.0,8.0,58,0.00,,---,0.00,VWS V14.00,2013-01-25 04:02:00,
2013-01-24 22:07:00,21.5,9.0,30.34,ESE,113,0.0,8.0,58,0.00,,---,0.00,VWS V14.00,2013-01-25 04:07:00,
2013-01-24 22:12:00,21.5,9.0,30.35,SE,143,0.0,8.0,58,0.00,,---,0.00,VWS V14.00,2013-01-25 04:12:00,
2013-01-24 22:17:00,21.5,9.0,30.35,SSE,162,0.0,5.0,58,0.00,,---,0.00,VWS V14.00,2013-01-25 04:17:00,
2013-01-24 22:22:00,21.5,9.0,30.35,SSE,152,0.0,7.0,58,0.00,,---,0.00,VWS V14.00,2013-01-25 04:22:00,
2013-01-24 22:27:00,21.5,9.0,30.34,South,188,0.0,7.0,58,0.00,,---,0.00,VWS V14.00,2013-01-25 04:27:00,
2013-01-24 22:30:00,21.6,9.1,30.35,East,79,0.0,11.0,58,0.00,,---,0.00,VWS V14.00,2013-01-25 04:30:00,
2013-01-24 22:32:00,21.6,9.1,30.34,South,182,0.0,7.0,58,0.00,,---,0.00,VWS V14.00,2013-01-25 04:32:00,
2013-01-24 22:37:00,21.5,9.0,30.34,ESE,105,0.0,8.0,58,0.00,,---,0.00,VWS V14.00,2013-01-25 04:37:00,
2013-01-24 22:42:00,21.5,9.0,30.32,SE,127,1.0,8.0,58,0.00,,---,0.00,VWS V14.00,2013-01-25 04:42:00,
2013-01-24 22:47:00,21.5,9.0,30.32,SE,139,0.0,11.0,58,0.00,,---,0.00,VWS V14.00,2013-01-25 04:47:00,
2013-01-24 22:52:00,21.5,9.0,30.32,SSE,166,2.0,11.0,58,0.00,,---,0.00,VWS V14.00,2013-01-25 04:52:00,
2013-01-24 22:57:00,21.5,9.0,30.32,SSE,164,1.0,11.0,58,0.00,,---,0.00,VWS V14.00,2013-01-25 04:57:00,
2013-01-24 23:00:00,21.5,9.0,30.35,SE,143,0.0,8.0,58,0.00,,---,0.00,VWS V14.00,2013-01-25 05:00:00,
2013-01-24 23:01:00,21.5,9.0,30.32,SSE,159,0.0,11.0,58,0.00,,---,0.00,VWS V14.00,2013-01-25 05:01:00,
2013-01-24 23:03:00,21.5,9.0,30.32,SSE,162,0.0,11.0,58,0.00,,---,0.00,VWS V14.00,2013-01-25 05:03:00,
2013-01-24 23:08:00,21.5,9.0,30.32,SSE,156,0.0,11.0,58,0.00,,---,0.00,VWS V14.00,2013-01-25 05:08:00,
2013-01-24 23:13:00,21.5,9.0,30.33,South,169,1.0,4.0,58,0.00,,---,0.00,VWS V14.00,2013-01-25 05:13:00,
2013-01-24 23:18:00,21.6,9.1,30.33,SSE,165,0.0,10.0,58,0.00,,---,0.00,VWS V14.00,2013-01-25 05:18:00,
2013-01-24 23:23:00,21.6,9.1,30.33,SSW,196,10.0,13.0,58,0.00,,---,0.00,VWS V14.00,2013-01-25 05:23:00,
2013-01-24 23:28:00,21.6,8.7,30.31,SSE,159,0.0,13.0,57,0.00,,---,0.00,VWS V14.00,2013-01-25 05:28:00,
2013-01-24 23:30:00,21.5,9.0,30.32,SE,131,0.0,8.0,58,0.00,,---,0.00,VWS V14.00,2013-01-25 05:30:00,
2013-01-24 23:33:00,21.6,9.1,30.31,SE,137,0.0,13.0,58,0.00,,---,0.00,VWS V14.00,2013-01-25 05:33:00,
2013-01-24 23:38:00,21.6,9.1,30.31,East,96,0.0,13.0,58,0.00,,---,0.00,VWS V14.00,2013-01-25 05:38:00,
2013-01-24 23:43:00,21.6,9.1,30.28,SE,142,0.0,11.0,58,0.00,,---,0.00,VWS V14.00,2013-01-25 05:43:00,
2013-01-24 23:48:00,21.5,9.0,30.28,SE,130,0.0,11.0,58,0.00,,---,0.00,VWS V14.00,2013-01-25 05:48:00,
2013-01-24 23:53:00,21.5,9.0,30.28,SSE,155,0.0,11.0,58,0.00,,---,0.00,VWS V14.00,2013-01-25 05:53:00,
2013-01-24 23:58:00,21.5,8.6,30.27,SE,138,0.0,11.0,57,0.00,,---,0.00,VWS V14.00,2013-01-25 05:58:00,